Location: Asheville, NC
(35.6000°N, 82.5500°W)
Time: 03:43:40
(UTC-04:00)

CUTE-I - Pass Details

Date: 05 January 2018
Orbit: 811 x 825 km, 98.7° (Epoch: 24 June)

Event Time Altitude Azimuth Distance (km) Brightness Sun altitude
Rises 18:53:24 0° 192° (SSW) 3,336 ? -16.3°
Reaches altitude 10° 18:56:01 10° 203° (SSW) 2,405 ? -16.8°
Maximum altitude 19:00:38 30° 263° (W) 1,430 ? -17.7°
Drops below altitude 10° 19:05:17 10° 324° (NW) 2,411 ? -18.6°
Sets 19:07:55 0° 335° (NNW) 3,344 ? -19.1°
